"Pseudo-MPEC" for C3QHGX1 = A10VDyu = ETBO
Created 2023 Jun 10 17:00:18 UT using Find_Orb
Click here for an explanation of pseudo-MPECs
C3QHGX1 appeared on NEOCP on 2023 April 28, and couldn't be linked to any known object. A10VDyu appeared on NEOCP the following June 10. Mostly because we had data from two widely separated stations covering a six-hour arc, resulting in an unusually good orbit, it was entirely possible to link back from A10VDyu to C3QHGX1. A search for additional tracklets turned up empty.
As usual, TLEs are available for this object. (Also as usual for ETBOs, their accuracy will decline somewhat for times away from when the object was observed.)
Astrometry:
C3QHGX1*1C2023 04 28.41031815 43 32.370-10 00 26.30 ~4SDu 16.30GVNEOCP703
C3QHGX1 1C2023 04 28.41137115 43 49.130-10 00 10.60 ~4SDu VNEOCP703
C3QHGX1 1C2023 04 28.41347915 44 22.720-09 59 38.50 ~4SDu VNEOCP703
C3QHGX1 1C2023 04 28.45673115 55 42.384-09 48 14.15 ~4SDu 15.93GVNEOCP703
C3QHGX1 1C2023 04 28.45680815 55 43.648-09 48 13.28 ~4SDu 16.51GVNEOCP703
C3QHGX1 1C2023 04 28.45688415 55 44.764-09 48 11.81 ~4SDu 16.38GVNEOCP703
C3QHGX1 1C2023 04 28.45696015 55 45.948-09 48 10.58 ~4SDu 16.45GVNEOCP703
C3QHGX1 1C2023 04 28.47285515 59 53.628-09 43 44.72 ~4SDu 16.31GVNEOCP703
C3QHGX1 1C2023 04 28.47296815 59 55.331-09 43 42.71 ~4SDu 16.26GVNEOCP703
C3QHGX1 1C2023 04 28.47308015 59 57.102-09 43 40.73 ~4SDu 16.18GVNEOCP703
C3QHGX1 1C2023 04 28.47319215 59 58.823-09 43 39.07 ~4SDu 16.48GVNEOCP703
C3QHGX1 1C2023 04 28.47949916 01 37.211-09 41 51.65 ~4SDu 16.25GVNEOCP703
C3QHGX1 1C2023 04 28.47965716 01 39.695-09 41 48.59 ~4SDu 16.07GVNEOCP703
C3QHGX1 1C2023 04 28.47981416 01 42.168-09 41 46.07 ~4SDu 16.23GVNEOCP703
C3QHGX1 1C2023 04 28.47997216 01 44.576-09 41 43.15 ~4SDu 16.30GVNEOCP703
A10VDyu* C2023 06 10oZN2W``MEuiTgEX`%gxCGkc7]vRxKdUe?o8dD[r1PL-U9_//(V!kW68
A10VDyu C2023 06 10G^cD6aITp4s@]daUAstrometryvh+u:oZI$%a'=JKS1Nb[b[!BsfW68
A10VDyu C2023 06 10*NL4!(35RkQ2q8mh?B'G*b0?dR8*redacted;6AFbUc7QxiBOUmAW68
A10VDyu C2023 06 10I\]BXi'S5E`NOvou_$9;Dclick!_here@*nhq$=m6\]Rcjg.Po]MW68
A10VDyu C2023 06 1022B%h8IiQCNE1Tq5KdK-GWJ8yXhnoo3['/`p!c9RaARrOIb!3g.5W68
A10VDyu C2023 06 10EYforMxkoF;eYvFC7pDTdQ;+)h[RexplanationP\?=DTW[nIQ;pW68
A10VDyu mC2023 06 10.45912418 12 48.247-09 36 44.89 ~6AGS 16.03GVNEOCPI52
A10VDyu mC2023 06 10.46133418 13 16.669-09 36 51.77 ~6AGS 16.05GVNEOCPI52
A10VDyu mC2023 06 10.46142318 13 17.821-09 36 51.59 ~6AGS 15.96GVNEOCPI52
A10VDyu mC2023 06 10.46151218 13 18.952-09 36 51.62 ~6AGS VNEOCPI52
Station data:
(703) Catalina Sky Survey (N32.417003 W110.732640) US/Arizona. Observer E.
J. Christensen. 0.68 m Schmidt + 10K CCD.
(I52) Steward Observatory, Mt. Lemmon Station (N32.442544 W110.788920)
US/Arizona. Observers T. A. Pruyne, B. M. Africano, E. J. Christensen, G.
A. Farneth, D. C. Fuls, A. R. Gibbs, A. D. Grauer, H. Gröller, J. A.
Johnson, R. A. Kowalski, S. M. Larson, G. J. Leonard, D. Rankin, R. L.
Seaman, F. C. Shelly, K. W. Wierzchoś. 1.0-m prime focus + CCD.
(W68) ATLAS Chile, Rio Hurtado (S30.471010 W70.764980) Chile. Observers L.
Denneau, R. Siverd, J. Tonry, H. Weiland. Measurers L. Denneau, N.
Erasmus, A. Fitzsimmons, A. Lawrence, J. Robinson, R. Siverd, J. Tonry, H.
Weiland. 0.5-m reflector + CCD.
Orbital elements: C3QHGX1 = A10VDyu
Perigee 2023 Jun 9.7685499 +/- 0.000137 TT = 18:26:42.71 (JD 2460105.2685499)
A1: (915.01 +/- 2.46)e-8 A2: (-47.47 +/- 6.75)e-9
A3: (146.09 +/- 1.51)e-9 AU/day^2 [1/r^2]
Epoch 2023 Jun 10.0 TT = JDT 2460105.5 Find_Orb
M 78.1115357481 +/- 0.045 (J2000 equator)
n 337.4875688504 +/- 0.00291 Peri. 76.7203375 +/- 0.0020
a 44099.295600 +/- 0.254 Node 8.6276946 +/- 0.008
e 0.791742650 +/- 1.1e-5 Incl. 6.4670244 +/- 0.00041
P1536.03m/1.067d H 32.04 G 0.15 U 8.8
q 9184.0024258 +/- 0.448 Q 79014.588775 +/- 0.865
From 25 observations 2023 Apr. 28-June 10; mean residual 0".405
Residuals in arcseconds: 230428 703 .598+ .105+ 230428 703 .041- .125+ 230610 W68 .797+ .120+ 230428 703 .358- .056- 230428 703 .411- .113- 230610 W68 .241+ .111- 230428 703 .941- .186+ 230428 703 .397- .125- 230610 W68 1.11- .014- 230428 703 1.7m- .016+ 230428 703 .140- .230+ 230610 I52 .026+ .208- 230428 703 .946+ .384- 230428 703 .183+ .062+ 230610 I52 .031+ .310- 230428 703 .063- .167- 230428 703 .687- .275+ 230610 I52 .082+ .142+ 230428 703 .067- .190- 230610 W68 1.00- 3.0m+ 230610 I52 .181- .383+ 230428 703 .455+ .053- 230610 W68 .969+ .016+ 230428 703 .411- .043+ 230610 W68 .152- 2.8m- Ephemerides (geocentric): Date (UTC) HH RA Dec delta elong mag " sig PA ---- -------- ------------ ------------ ------ ----- --- -------- 2023 06 10 17 20 16 11.525 -05 55 56.21 43303 132.8 16.2 52.7 85 2023 06 10 18 21 01 45.053 -05 17 44.02 33632 122.3 15.9 107 85 2023 06 10 19 22 31 58.121 -03 27 00.33 21616 100.9 15.6 305 84 2023 06 10 20 04 37 51.332 +05 35 41.32 9303 19.4 22?? 1820 87 2023 06 10 21 12 28 06.550 +00 19 42.93 19408 106.9 15.2 410 97 2023 06 10 22 14 13 26.801 -02 35 30.43 31862 131.8 15.5 139 96 2023 06 10 23 15 02 49.302 -03 48 26.26 41868 142.9 15.8 70.7 96 2023 06 11 00 15 34 26.396 -04 29 45.10 50060 149.6 16.0 42.0 95 2023 06 11 01 15 57 48.270 -04 57 02.09 56855 154.1 16.2 26.8 95 2023 06 11 02 16 16 33.500 -05 16 44.21 62509 157.4 16.3 17.5 94 2023 06 11 03 16 32 27.251 -05 31 48.56 67185 159.7 16.3 11.4 94 2023 06 11 04 16 46 27.988 -05 43 48.30 70996 161.4 16.4 7.17 92 2023 06 11 05 16 59 11.799 -05 53 37.31 74020 162.4 16.5 4.14 90 2023 06 11 06 17 11 02.929 -06 01 48.80 76310 163.0 16.5 1.95 84 2023 06 11 07 17 22 18.962 -06 08 44.18 77906 163.0 16.6 .494 47 2023 06 11 08 17 33 13.655 -06 14 37.47 78831 162.7 16.6 .851 121 2023 06 11 09 17 43 58.667 -06 19 37.73 79100 162.0 16.6 1.49 110 2023 06 11 10 17 54 44.759 -06 23 50.32 78715 160.9 16.7 1.77 109 2023 06 11 11 18 05 42.787 -06 27 17.47 77673 159.6 16.7 1.66 112 2023 06 11 12 18 17 04.717 -06 29 58.23 75956 157.9 16.7 1.17 124 2023 06 11 13 18 29 04.897 -06 31 47.92 73538 156.0 16.7 .699 12 2023 06 11 14 18 42 01.939 -06 32 36.51 70379 153.7 16.6 2.11 70 2023 06 11 15 18 56 21.874 -06 32 05.43 66420 150.9 16.6 4.94 81 2023 06 11 16 19 12 44.023 -06 29 40.60 61578 147.6 16.5 9.45 84 2023 06 11 17 19 32 13.194 -06 24 16.53 55733 143.5 16.4 16.8 86 2023 06 11 18 19 56 48.579 -06 13 34.67 48709 138.2 16.3 29.8 86 2023 06 11 19 20 30 46.067 -05 51 51.92 40226 130.5 16.1 56.2 86 2023 06 11 20 21 25 51.000 -05 00 36.73 29826 117.7 15.8 126 85 2023 06 11 21 23 35 17.739 -01 58 51.30 16890 86.8 15.7 461 84 2023 06 11 22 08 53 48.588 +05 32 18.79 10622 54.7 16?? 1259 94 2023 06 11 23 13 19 09.385 -00 57 59.31 24002 118.0 15.3 239 97 2023 06 12 00 14 35 41.797 -03 02 19.37 35553 135.8 15.7 99.5 96 2023 06 12 01 15 17 01.245 -04 01 46.84 44879 145.0 15.9 55.2 95 2023 06 12 02 15 45 06.869 -04 37 49.03 52556 150.8 16.1 34.4 94 2023 06 12 03 16 06 34.225 -05 02 34.24 58938 154.9 16.2 22.7 93 2023 06 12 04 16 24 09.542 -05 20 55.14 64241 157.8 16.3 15.3 93 2023 06 12 05 16 39 17.403 -05 35 13.45 68611 160.0 16.4 10.2 91 2023 06 12 06 16 52 46.707 -05 46 46.64 72145 161.5 16.4 6.64 90 2023 06 12 07 17 05 08.577 -05 56 20.72 74912 162.5 16.5 4.01 87 2023 06 12 08 17 16 44.492 -06 04 24.64 76961 162.9 16.5 2.07 81 2023 06 12 09 17 27 50.435 -06 11 17.27 78325 163.0 16.6 .716 58 2023 06 12 10 17 38 39.253 -06 17 11.04 79024 162.6 16.6 .587 135 2023 06 12 11 17 49 22.151 -06 22 13.93 79069 161.9 16.6 1.16 111 2023 06 12 12 18 00 09.787 -06 26 30.48 78460 160.8 16.6 1.45 106 2023 06 12 13 18 11 13.251 -06 30 02.14 77189 159.4 16.7 1.41 106 2023 06 12 14 18 22 45.131 -06 32 47.13 75236 157.7 16.7 .963 111 2023 06 12 15 18 35 00.945 -06 34 39.59 72569 155.7 16.6 .305 12 2023 06 12 16 18 48 21.348 -06 35 27.58 69143 153.3 16.6 1.74 81 2023 06 12 17 19 03 15.987 -06 34 49.05 64893 150.5 16.5 4.42 87 2023 06 12 18 19 20 30.925 -06 32 02.82 59723 147.0 16.5 8.80 88 2023 06 12 19 19 41 24.715 -06 25 47.12 53497 142.5 16.4 16.2 88 2023 06 12 20 20 08 28.665 -06 13 00.17 46010 136.6 16.2 30.0 88 2023 06 12 21 20 47 31.401 -05 45 34.15 36932 127.7 16.0 60.3 87 2023 06 12 22 21 56 45.148 -04 33 04.02 25716 111.5 15.7 154 85 2023 06 12 23 01 26 54.129 +01 01 30.63 12175 61.2 16.4 809 84 2023 06 13 00 11 21 37.642 +02 30 30.34 15001 88.8 15.3 564 96 2023 06 13 01 13 54 47.982 -01 49 10.17 28267 125.3 15.5 153 96 2023 06 13 02 14 54 13.221 -03 23 08.57 38981 138.9 15.8 74.0 95 2023 06 13 03 15 29 42.242 -04 13 05.47 47693 146.7 16.0 44.0 94 2023 06 13 04 15 55 00.212 -04 45 04.01 54897 151.8 16.1 28.7 93 2023 06 13 05 16 14 52.264 -05 07 46.80 60891 155.5 16.3 19.6 92 2023 06 13 06 16 31 27.674 -05 25 00.47 65862 158.2 16.3 13.6 91 2023 06 13 07 16 45 55.510 -05 38 40.26 69936 160.2 16.4 9.40 89 2023 06 13 08 16 58 57.143 -05 49 51.31 73202 161.6 16.5 6.31 88 2023 06 13 09 17 10 59.676 -05 59 13.28 75719 162.5 16.5 4.00 85 2023 06 13 10 17 22 22.309 -06 07 11.53 77531 162.9 16.6 2.25 80 2023 06 13 11 17 33 19.706 -06 14 02.79 78666 162.9 16.6 .946 67 2023 06 13 12 17 44 03.979 -06 19 58.12 79141 162.5 16.6 .351 160 2023 06 13 13 17 54 46.006 -06 25 04.51 78963 161.8 16.6 .850 108 2023 06 13 14 18 05 36.460 -06 29 25.71 78129 160.7 16.6 1.21 99 2023 06 13 15 18 16 46.783 -06 33 02.44 76627 159.3 16.6 1.26 94 2023 06 13 16 18 28 30.345 -06 35 52.02 74434 157.5 16.6 .961 88 2023 06 13 17 18 41 04.075 -06 37 47.25 71514 155.4 16.6 .243 51 2023 06 13 18 18 54 51.092 -06 38 33.97 67815 152.9 16.6 1.27 103 2023 06 13 19 19 10 25.459 -06 37 45.84 63262 149.9 16.5 3.70 96 2023 06 13 20 19 28 41.695 -06 34 32.59 57749 146.2 16.4 7.83 94 2023 06 13 21 19 51 16.304 -06 27 10.63 51120 141.4 16.3 15.2 92 2023 06 13 22 20 21 25.181 -06 11 35.73 43134 134.7 16.1 29.8 90 2023 06 13 23 21 07 19.422 -05 35 46.25 33398 124.1 15.8 65.4 88 2023 06 14 00 22 39 14.985 -03 45 36.43 21283 102.4 15.5 202 85 2023 06 14 01 05 03 13.699 +05 50 23.05 9137 18.3 22?? 1289 87 2023 06 14 02 12 40 03.411 +00 28 43.61 19792 106.5 15.3 287 96 2023 06 14 03 14 21 48.639 -02 25 18.46 32206 130.5 15.6 105 95 2023 06 14 04 15 10 05.959 -03 39 50.84 42169 141.5 15.9 56.9 94 2023 06 14 05 15 41 11.352 -04 22 50.82 50325 148.1 16.1 36.0 92 2023 06 14 06 16 04 13.988 -04 51 38.85 57091 152.7 16.2 24.5 91 2023 06 14 07 16 22 45.970 -05 12 42.37 62719 156.1 16.3 17.3 90 2023 06 14 08 16 38 29.821 -05 29 00.56 67373 158.6 16.4 12.4 89 2023 06 14 09 16 52 22.725 -05 42 08.50 71163 160.4 16.4 8.84 87 2023 06 14 10 17 05 00.072 -05 53 01.56 74168 161.7 16.5 6.16 86